Vertical_Velocity
8 -1 2 -1 2 1 0 -1 -0 0 0 -1 0 0 -1 -0 -2 1 1 -0 -0 0 1 1 1 1 -0 -0 -1 -0 -0 -1 -0 -1 -1 3 -1 2 1 2 3 1 0 0 -4
5 3 4 4 2 2 2 -0 -0 1 -1 -0 0 -0 1 -0 -1 -1 2 1 1 -0 1 1 2 0 1 0 2 -0 -0 2 1 0 1 0 0 -1 1 2 -0 -3 2 2 3
0 8 2 1 -2 3 2 1 0 2 0 -0 -1 0 0 0 0 0 1 0 1 0 1 0 1 1 1 1 2 -1 -1 1 -2 -1 0 0 1 2 -0 -5 1 -0 -3 -0 -2
2 4 4 5 -0 1 2 1 -0 1 1 -1 0 1 -0 0 -2 -1 2 1 1 1 0 1 0 1 1 -2 3 1 4 4 0 2 1 -2 -2 -2 1 1 1 1 -1 0 1
-8 6 3 3 -0 1 3 2 -0 -2 1 1 -0 0 1 1 -1 0 -0 -1 -0 -0 -1 1 1 1 1 0 3 -2 -3 0 -0 -1 2 -0 -0 -3 -1 1 2 -1 1 1 -2
-2 1 3 2 -1 -1 1 4 -0 -0 -0 1 -0 -1 -1 1 1 1 -0 0 -0 0 1 0 -1 2 0 -2 1 -2 2 -0 -0 -1 1 3 -1 -5 3 3 3 1 -0 -0 -0
-7 2 5 -2 1 -1 -0 3 -1 1 1 1 -1 -1 -0 -2 0 1 0 1 -0 -0 1 -2 -0 -0 4 -2 -0 -1 3 1 -1 -3 1 3 -3 -7 0 4 0 -1 -1 -1 -1
-2 -1 1 0 -1 2 -2 1 0 3 0 1 0 0 1 -0 3 1 -2 -0 -0 -1 -0 -0 0 -1 1 1 -2 -1 3 0 2 1 5 0 -1 -1 3 1 1 -1 -1 -2 -2
-0 -2 -0 2 4 0 1 1 0 2 0 1 -0 -1 -0 -1 0 -1 -1 -0 1 -1 1 -1 2 -2 -1 -2 1 -0 1 -0 -2 -1 5 -1 -3 2 1 0 0 -1 -1 -1 -1
-3 1 1 1 1 -0 0 -0 1 2 -0 -1 -2 -1 -3 1 1 1 3 -1 2 1 -1 -0 3 -2 -2 1 -0 -2 -0 1 -2 5 -3 1 -1 -1 3 1 -1 -1 -0 -1 -0
4 1 2 3 1 -0 -1 1 1 -1 4 1 -1 -5 -3 1 1 3 2 0 -2 -1 2 -0 1 -4 6 -1 -4 -3 -5 -3 1 3 -3 1 -0 -0 3 0 -1 -1 -2 -2 0
-1 -0 -1 4 2 -2 4 4 -2 8 -1 -3 3 -0 -2 -0 2 2 1 -3 3 -6 1 -1 -2 -1 -1 6 -1 -2 2 -1 -1 -2 0 -2 -0 4 0 1 -0 1 0 1 2
4 0 3 1 1 6 -3 12 -2 0 0 5 2 -0 -3 1 1 -1 1 5 -5 -6 -0 -6 -3 2 -1 4 -0 0 -0 0 -0 -1 1 1 2 2 1 0 -0 0 1 1 1
4 2 -1 5 4 2 0 5 1 -4 3 -2 3 -4 -0 1 2 -1 3 4 -0 -1 2 -2 -4 -0 -2 1 -4 -6 6 1 -0 -1 -2 -1 4 0 -1 -1 -1 -1 -2 0 -1
-3 -1 2 0 2 1 2 1 -5 5 6 -7 0 -4 7 -3 8 2 -1 2 4 0 -1 -1 -2 -0 -0 3 1 -4 -1 4 -1 0 -1 2 -1 -1 -0 -1 -2 -2 -3 -1 2
-1 -1 0 -3 4 2 1 1 -3 -3 5 -6 -5 6 8 -1 -0 3 -4 -0 0 0 2 -3 3 0 1 -1 4 -0 -3 2 1 1 0 -1 -0 4 1 1 -0 -3 -1 1 1
-1 -2 2 -1 1 -2 3 2 1 -5 -1 1 -1 0 6 3 -1 -4 -1 1 0 1 1 -3 2 -1 2 -3 7 -1 -2 2 -1 -2 -1 -2 -2 3 1 2 2 -0 2 -0 -1
0 1 1 2 -4 1 2 -1 -4 0 1 3 -1 3 6 4 -1 -1 1 1 3 -2 0 2 -3 -1 2 -1 4 -2 1 1 -3 2 1 -1 -3 1 4 2 1 1 -0 -1 -1
1 2 -0 0 -1 -3 -4 -6 8 -2 5 4 2 2 3 -2 1 2 -0 4 -0 1 -1 -0 -1 -0 0 -2 3 -0 -1 1 -2 -1 0 -2 2 -1 -0 0 0 1 1 0 -2
2 5 -1 -1 2 -2 -5 9 1 4 0 2 0 3 -0 1 1 -1 1 2 -0 1 2 1 -2 1 -0 -1 2 -1 -1 1 0 -5 -1 2 1 -6 1 1 -1 1 2 2 -2
1 3 1 -2 1 -7 -8 12 6 0 1 5 2 -1 -1 1 -2 1 1 1 2 -0 -0 2 -0 2 -0 0 -1 0 1 1 -1 -1 -5 -3 3 1 -2 1 -0 1 3 1 -1
1 -0 3 -0 -8 -0 6 16 4 -5 1 2 1 -3 1 -0 1 -2 1 1 2 -0 -0 -2 -0 -1 -1 -1 0 0 1 1 -1 0 -1 1 12 3 -4 1 0 0 2 1 -2
-3 13 -2 -6 -18 -1 11 7 -2 2 1 3 -0 -2 2 1 -1 2 -2 3 0 2 -2 1 -2 -1 0 1 1 -2 2 2 -2 -1 7 -7 6 -4 -2 -3 -2 0 2 -1 1
-3 -5 -2 -11 -3 6 10 4 -2 2 -2 -0 -1 -2 4 0 -1 -0 -1 -0 1 2 -4 -5 2 -0 -2 -2 1 -0 1 1 -2 -2 -3 12 3 -3 0 -5 -2 1 0 -1 -0
-1 4 5 -8 6 16 8 0 -1 -1 1 -3 -3 6 2 -3 -1 2 -1 1 1 3 -5 -5 -0 -3 0 -1 -1 1 3 -1 0 6 -7 15 0 -1 -1 -4 1 -3 -2 -1 -2
4 -3 5 7 4 1 -6 5 6 4 -1 4 4 3 -4 2 2 -1 -3 0 3 2 -2 2 -1 0 4 -3 -2 -1 3 4 -0 -0 -5 -2 5 2 -2 2 -1 1 2 -1 -1
-2 2 4 3 3 -5 7 15 16 1 -5 3 5 -4 0 11 -8 0 -0 -1 -1 -1 -1 -3 -1 1 -1 -0 -1 -3 5 -1 2 -2 -2 2 1 2 1 1 0 1 2 -1 -0
Height
5814 5816 5818 5823 5829 5835 5839 5842 5846 5849 5851 5855 5857 5858 5859 5860 5861 5862 5861 5863 5863 5864 5865 5864 5865 5866 5865 5864 5865 5865 5865 5864 5863 5862 5861 5861 5860 5861 5860 5859 5859 5857 5856 5856 5856
5809 5813 5816 5819 5823 5829 5834 5837 5842 5845 5847 5850 5853 5854 5856 5856 5858 5859 5860 5859 5860 5861 5863 5864 5863 5864 5864 5864 5864 5863 5863 5863 5862 5861 5860 5859 5859 5859 5858 5857 5856 5855 5855 5854 5853
5802 5806 5811 5814 5818 5824 5829 5832 5836 5840 5842 5846 5848 5850 5852 5853 5855 5855 5856 5856 5857 5858 5859 5860 5862 5862 5862 5862 5863 5862 5862 5861 5860 5860 5858 5857 5857 5857 5856 5854 5854 5853 5852 5852 5850
5797 5799 5805 5810 5814 5818 5824 5828 5831 5835 5838 5841 5843 5845 5847 5849 5851 5851 5852 5853 5854 5855 5856 5857 5857 5859 5860 5859 5859 5859 5859 5859 5858 5859 5858 5856 5855 5854 5853 5853 5852 5850 5848 5848 5847
5792 5792 5800 5806 5812 5815 5819 5823 5826 5830 5833 5836 5838 5840 5842 5844 5845 5848 5848 5850 5851 5852 5852 5853 5853 5854 5855 5856 5856 5856 5855 5855 5854 5854 5854 5852 5852 5851 5850 5851 5850 5848 5845 5843 5842
5787 5791 5796 5801 5806 5810 5815 5818 5821 5824 5828 5831 5833 5835 5838 5840 5841 5843 5844 5846 5846 5848 5848 5850 5850 5849 5850 5851 5851 5851 5851 5851 5850 5849 5849 5848 5846 5847 5847 5847 5846 5844 5842 5840 5838
5785 5789 5795 5797 5801 5805 5810 5813 5815 5819 5822 5826 5827 5830 5833 5833 5837 5839 5840 5842 5842 5843 5844 5845 5846 5845 5845 5846 5847 5846 5846 5845 5845 5845 5845 5844 5839 5842 5843 5842 5841 5839 5838 5835 5833
5783 5787 5791 5793 5798 5801 5805 5808 5810 5813 5817 5820 5822 5824 5828 5828 5832 5834 5836 5837 5838 5840 5840 5840 5842 5843 5840 5841 5841 5841 5841 5839 5840 5840 5841 5841 5833 5838 5838 5836 5833 5832 5831 5830 5829
5780 5784 5787 5789 5793 5796 5799 5802 5805 5808 5811 5815 5818 5820 5821 5824 5827 5829 5832 5833 5834 5835 5836 5837 5838 5838 5837 5837 5836 5836 5836 5835 5834 5836 5836 5836 5831 5832 5833 5832 5829 5827 5826 5824 5823
5776 5780 5783 5785 5788 5791 5793 5796 5799 5802 5805 5809 5812 5816 5817 5819 5821 5824 5827 5828 5829 5831 5833 5834 5834 5833 5832 5833 5833 5832 5832 5831 5830 5832 5830 5830 5829 5827 5827 5827 5825 5824 5822 5820 5819
5772 5775 5777 5781 5783 5786 5788 5791 5796 5799 5800 5802 5807 5809 5811 5815 5817 5820 5823 5825 5825 5826 5829 5828 5829 5828 5829 5829 5828 5827 5828 5827 5827 5827 5826 5827 5825 5823 5824 5822 5821 5820 5819 5817 5816
5767 5770 5772 5776 5778 5779 5783 5787 5789 5794 5793 5795 5800 5805 5806 5810 5812 5815 5818 5820 5822 5823 5824 5825 5825 5825 5825 5825 5824 5823 5823 5823 5823 5823 5823 5823 5822 5821 5821 5818 5817 5816 5814 5814 5813
5762 5765 5766 5770 5773 5776 5778 5782 5784 5787 5790 5794 5797 5800 5802 5805 5808 5811 5813 5815 5817 5818 5820 5819 5819 5820 5819 5820 5819 5819 5819 5820 5820 5819 5819 5820 5820 5819 5818 5815 5814 5812 5811 5810 5808
5756 5759 5762 5767 5770 5773 5775 5778 5781 5783 5788 5791 5792 5795 5799 5801 5804 5806 5809 5812 5813 5813 5814 5814 5815 5815 5816 5815 5816 5815 5816 5816 5816 5816 5816 5816 5817 5815 5814 5812 5810 5808 5806 5805 5803
5751 5755 5758 5762 5765 5768 5771 5774 5776 5780 5785 5788 5789 5793 5795 5798 5801 5802 5805 5806 5807 5807 5810 5810 5810 5811 5811 5812 5812 5813 5813 5812 5812 5813 5813 5812 5813 5811 5810 5807 5805 5803 5800 5799 5797
5745 5749 5753 5756 5759 5762 5766 5770 5772 5777 5779 5782 5786 5788 5791 5793 5796 5797 5799 5802 5802 5803 5804 5805 5806 5807 5807 5808 5808 5809 5809 5808 5808 5808 5809 5808 5807 5807 5805 5802 5800 5796 5794 5792 5790
5738 5743 5747 5749 5752 5756 5760 5763 5768 5770 5777 5780 5782 5784 5786 5788 5790 5792 5795 5797 5798 5800 5800 5801 5802 5802 5804 5804 5804 5805 5805 5804 5805 5805 5805 5803 5802 5800 5797 5794 5791 5790 5789 5786 5784
5731 5737 5740 5744 5747 5752 5756 5760 5762 5769 5771 5774 5776 5780 5782 5783 5785 5788 5791 5793 5794 5795 5796 5797 5798 5800 5800 5800 5801 5800 5801 5800 5799 5800 5800 5798 5795 5793 5789 5786 5785 5784 5783 5781 5779
5722 5728 5733 5737 5740 5745 5750 5753 5758 5763 5766 5768 5772 5775 5776 5778 5782 5784 5786 5788 5789 5791 5792 5792 5794 5795 5795 5796 5797 5796 5796 5795 5793 5793 5794 5794 5790 5787 5783 5781 5779 5778 5776 5776 5775
5713 5720 5726 5730 5734 5738 5742 5748 5752 5756 5760 5763 5766 5769 5771 5774 5777 5778 5780 5783 5784 5785 5785 5787 5788 5790 5790 5791 5790 5790 5791 5790 5788 5786 5787 5787 5784 5779 5778 5777 5774 5772 5771 5770 5769
5702 5710 5717 5721 5726 5730 5735 5742 5746 5750 5754 5758 5759 5763 5766 5768 5771 5773 5775 5778 5779 5780 5781 5781 5782 5786 5785 5785 5784 5785 5784 5784 5782 5782 5778 5778 5779 5774 5772 5771 5768 5767 5766 5765 5763
5695 5701 5707 5713 5719 5724 5730 5736 5741 5743 5746 5750 5753 5757 5760 5762 5764 5767 5770 5771 5773 5774 5775 5776 5777 5779 5778 5778 5778 5777 5778 5777 5775 5776 5774 5771 5772 5768 5765 5763 5761 5760 5760 5758 5756
5686 5693 5696 5703 5712 5719 5724 5729 5733 5737 5739 5742 5746 5750 5753 5755 5758 5760 5763 5767 5767 5768 5769 5770 5770 5772 5772 5773 5771 5770 5771 5770 5768 5767 5768 5763 5765 5761 5758 5755 5753 5753 5753 5751 5750
5678 5684 5690 5696 5704 5710 5716 5721 5725 5729 5731 5734 5738 5742 5745 5748 5750 5752 5756 5759 5760 5761 5762 5763 5764 5765 5766 5764 5765 5764 5763 5763 5761 5760 5758 5759 5757 5753 5750 5747 5746 5746 5745 5742 5741
5667 5674 5682 5689 5696 5701 5706 5712 5716 5721 5724 5727 5731 5735 5739 5740 5741 5744 5749 5750 5753 5753 5755 5755 5758 5758 5758 5757 5756 5756 5756 5755 5753 5752 5748 5753 5750 5746 5741 5738 5738 5737 5736 5733 5730
5659 5667 5675 5681 5686 5691 5695 5701 5708 5711 5715 5720 5723 5727 5729 5730 5734 5737 5739 5742 5745 5747 5747 5748 5749 5750 5751 5750 5747 5748 5750 5748 5745 5744 5740 5739 5743 5739 5735 5732 5729 5727 5725 5723 5721
5651 5658 5665 5670 5676 5681 5688 5694 5698 5700 5705 5710 5714 5718 5721 5724 5726 5729 5732 5734 5736 5739 5740 5741 5741 5742 5741 5742 5738 5738 5744 5740 5738 5735 5732 5731 5732 5730 5727 5725 5722 5720 5718 5715 5712